Location: Giam Lerong Balui
(2.4000°N, 113.8000°E)
Time: 15:56:54
(UTC+00:00)

Daily predictions for brighter satellites

Satellite Brightness Start Highest point End
(mag) Time Altitude Azimuth Time Altitude Azimuth Time Altitude Azimuth
Cosmos 1378 Rocket 3.8 12:00:13 10° SSW 12:04:29 65° W 12:08:46 10° N
Cosmos 2239 Rocket 4.3 12:05:30 10° N 12:11:41 82° E 12:14:55 30° S
CSL-04 Rocket 3.6 12:09:56 43° SSE 12:11:45 74° ENE 12:17:14 10° N
Cosmos 2082 3.6 12:06:43 10° NNW 12:12:26 87° WSW 12:14:35 40° SSE
Sich 1 Rocket 3.9 12:12:49 10° NNW 12:17:09 63° W 12:18:26 42° SSW
Cosmos 2322 4.2 12:19:26 42° ENE 12:19:26 42° ENE 12:23:25 10° NNE
Ariane H10 4.2 12:16:01 10° SW 12:18:57 34° S 12:18:57 34° S
Cosmos 1140 Rocket 3.7 12:17:05 10° N 12:21:36 54° NE 12:21:36 54° NE
Cosmos 1110 Rocket 3.9 12:18:01 13° SSW 12:22:36 82° WNW 12:27:45 10° N
Atlas Centaur 2 3.3 12:29:16 10° W 12:31:13 20° SW 12:31:13 20° SW
In-Cosmos 22 4.2 12:39:12 72° W 12:39:18 72° W 12:44:32 10° N
Centaur AC-42 4.1 12:14:22 10° WSW 12:39:39 37° S 12:40:20 36° S
DELTA 2 R/B (1) 4.3 12:48:05 10° WSW 12:52:32 50° W 12:52:32 50° W
Cosmos 2263 Rocket 3.3 12:51:53 10° N 12:55:11 36° N 12:55:11 36° N
Cosmos 2219 Rocket 3.8 13:10:27 28° NNW 13:10:27 28° NNW 13:13:09 10° N
Cosmos 2333 Rocket 3.4 13:11:48 38° WNW 13:11:54 38° WNW 13:17:10 10° N
Kakehashi 4.4 13:14:14 10° WNW 13:20:16 49° W 13:20:16 49° W
ATLAS 2AS CENTAUR R/B 3.4 19:38:07 54° N 19:38:07 54° N 19:44:05 10° NNE
Cosmos 2082 Rocket 4.2 19:46:17 18° N 19:46:17 18° N 19:47:42 10° N
ATLAS 2A CENTAUR R/B 3.8 19:51:10 21° NE 19:51:10 21° NE 19:56:13 10° E
Centaur AC-112 4.1 19:56:37 41° NNE 19:56:37 41° NNE 20:04:36 10° NE
ALOS 3.8 19:53:36 10° NNE 19:56:23 34° NE 19:56:23 34° NE
Cosmos 2315 Rocket 3.9 20:05:56 10° N 20:11:41 76° NW 20:11:41 76° NW
ARIANE 5 R/B 3.8 20:14:32 36° ESE 20:14:32 36° ESE 20:19:46 10° E
Cosmos 1745 Rocket 4.2 20:12:07 44° SSE 20:14:03 66° E 20:20:07 10° NNE
Cosmos 2112 Rocket 4.0 20:17:03 78° ENE 20:17:03 78° ENE 20:22:11 10° NNE
GPS 2-17 Rocket1 3.9 20:26:13 41° N 20:26:50 44° NNE 20:31:15 10° E
Ariane H10+ 3.6 20:28:11 28° SSE 20:28:11 28° SSE 20:34:22 10° ESE
Cosmos 1680 Rocket 3.7 20:30:46 53° NW 20:30:46 53° NW 20:35:22 10° N
Cosmos 1656 3.8 20:27:58 10° N 20:33:36 75° ENE 20:39:09 10° SSE
Cosmos 1470 Rocket 4.3 20:33:19 30° SSE 20:35:15 51° E 20:39:35 10° NNE
Sakura Rocket 4.2 20:33:33 50° W 20:35:21 69° NNW 20:43:53 10° NE
ISS -0.9 20:42:34 10° NNW 20:42:34 10° NNW 20:42:42 10° NNW
SWIFT 2.7 20:44:57 48° NW 20:45:15 49° NNW 20:49:18 10° NE
Centaur D-1A AC-32 3.8 20:44:16 20° NW 20:45:30 23° NNW 20:50:27 10° NE
Cosmos 44 Rocket 3.5 20:46:05 49° W 20:46:25 50° WNW 20:51:19 10° N
USA 281 3.2 20:41:27 10° S 20:47:51 58° WSW 20:54:17 10° NNW
BLOCK DM-SL R/B 4.4 20:37:09 25° W 20:48:03 78° S 20:53:32 10° E
USA 276 4.3 20:48:06 18° SE 20:48:38 18° SE 20:50:54 10° E
ADEOS 4.5 20:44:17 10° NNE 20:49:15 46° ESE 20:54:14 10° S
Cosmos 1484 Rocket 3.7 20:46:29 10° N 20:48:56 32° NW 20:48:56 32° NW
Ariane H10-3 3.0 20:50:07 30° N 20:50:09 30° N 20:53:07 10° ENE
HETE-2 4.4 20:51:52 63° SW 20:52:16 68° S 20:56:26 10° E
Cosmos 1697 Rocket 3.7 20:47:24 10° N 20:52:48 48° ENE 20:58:14 10° SSE
SJ-12 4.3 20:53:23 10° NNE 20:57:21 60° E 21:00:34 15° S
deb Ariane 3.4 20:59:53 33° WNW 21:01:06 62° N 21:04:06 10° E
OAO 2 Rocket 3.4 20:59:16 34° SW 21:01:31 73° SE 21:06:46 10° ENE
RESURS DK-1 4.1 21:02:59 18° NW 21:02:59 18° NW 21:05:01 10° NNW
Cosmos 1666 2.5 21:01:21 27° S 21:03:16 89° W 21:06:58 10° N
MOS 1 Rocket 3.9 20:59:33 10° SSE 21:03:49 51° E 21:07:57 10° N
Meteor 1-5 Rocket 4.0 21:00:12 12° S 21:05:19 84° W 21:10:37 10° N
Ariane H10 4.4 21:05:27 13° SSE 21:05:27 13° SSE 21:06:46 10° SE
Meteor 1-31 Rocket 2.7 21:02:40 10° NNE 21:06:27 82° ESE 21:09:19 17° S
ARIANE 5 DEB (SYLDA) 2.6 21:07:58 33° SW 21:08:55 41° S 21:11:21 10° ESE
H-2A R/B 3.5 21:06:45 10° NNE 21:10:28 52° E 21:14:10 10° S
Cosmos 2228 Rocket 4.2 21:12:38 10° NW 21:16:09 23° W 21:16:12 23° W
FALCON 9 DEB 3.7 21:18:31 27° W 21:19:24 32° WSW 21:22:28 10° S
ARIANE 5 R/B 3.7 21:18:10 23° SW 21:20:25 43° S 21:35:13 10° ESE
Nadezhda 1 Rocket 4.0 21:14:21 10° N 21:20:40 86° W 21:27:05 10° S
BLOCK DM-SL R/B 1.1 21:18:31 21° W 21:20:58 87° N 21:23:02 10° E
Cosmos 1980 Rocket 3.5 21:18:09 10° N 21:23:24 42° ENE 21:28:41 10° SE
Cosmos 1862 Rocket 3.8 21:24:38 10° N 21:29:03 73° E 21:33:28 10° S
SL-27 R/B 2.4 21:27:45 15° SSW 21:30:17 53° WNW 21:33:29 10° N
Cosmos 2369 3.7 21:29:12 10° NNW 21:34:49 89° W 21:40:29 10° SSE
IRAS Rocket 4.2 21:31:10 10° S 21:36:47 75° WSW 21:42:23 10° NNW
Meteor 1-19 Rocket 4.3 21:30:53 10° N 21:36:49 76° W 21:42:36 10° S
CZ-4B R/B 3.3 21:33:23 10° NNE 21:37:50 77° ESE 21:42:10 10° S
Cosmos 2360 4.2 21:34:29 10° NNW 21:40:03 62° WSW 21:45:39 10° S
FALCON 9 DEB 3.3 21:37:22 10° NNW 21:40:22 62° NE 21:43:21 10° SE
Meteor 1-11 Rocket 3.8 21:35:03 10° S 21:41:01 82° W 21:46:57 10° N
Cosmos 1048 Rocket 4.1 21:38:01 10° SSW 21:43:24 89° ESE 21:48:43 10° NNE
Cosmos 1707 Rocket 4.5 21:41:22 10° NW 21:45:01 27° W 21:48:41 10° SSW
NOSS 3-2 (A) 4.3 21:37:36 10° NW 21:46:08 62° WSW 21:54:45 10° S
YAOGAN 6 2.9 21:43:49 10° N 21:47:07 44° W 21:50:28 10° SSW
Atlas Centaur 2 4.4 21:41:29 10° SSW 21:48:33 29° SSE 21:55:29 10° E
CZ-3 Stage 3 2.9 21:46:34 10° W 21:49:15 35° NNW 21:56:59 10° NE
FALCON 9 DEB 3.7 21:46:48 10° NNW 21:49:48 54° NE 21:52:48 10° SE
NOSS 3-2 (C) 4.5 21:41:28 10° NNW 21:50:09 83° ENE 21:58:56 10° SSE
FALCON 9 DEB 2.8 21:48:16 10° NNW 21:51:17 88° NE 21:54:19 10° SE
H-2A R/B 3.9 21:47:22 10° SE 21:51:30 38° ENE 21:55:32 10° N
BREEZE-M DEB (TANK) 2.4 21:48:32 10° NW 21:53:42 85° SW 21:56:06 10° SE
Cosmos 1544 3.0 21:51:38 10° S 21:55:13 69° W 21:58:49 10° N
Meteor 1-18 Rocket 4.5 21:50:19 10° NNW 21:56:05 56° W 22:01:52 10° S
Meteor PRIRODA 3.9 21:52:44 10° N 21:56:20 51° W 21:59:56 10° SSW
Cosmos 1743 3.2 21:53:40 10° S 21:57:29 66° E 22:01:18 10° N
Cosmos 371 Rocket 3.8 21:53:09 10° NW 21:57:35 38° WSW 22:02:01 10° S
Okean 1-7 4.3 21:56:39 10° NNE 22:00:45 45° E 22:04:50 10° SSE
ARIANE 5 R/B 4.4 21:14:47 10° W 22:06:06 56° SSW 22:12:47 10° ESE
